Change the Weather History Date:

Monday, September 10, 2012

  Actual Average Record
Temperature  
Mean Temperature 68 °F -  
Max Temperature 84 °F 72 °F 90 °F (1952)
Min Temperature 53 °F 46 °F 29 °F (1955)
Cooling Degree Days 4    
Growing Degree Days 18 (Base 50)    
Moisture  
Dew Point 45 °F    
Average Humidity 46    
Maximum Humidity 72    
Minimum Humidity 25    
Precipitation  
Precipitation 0.00 in - - ()
Sea Level Pressure  
Sea Level Pressure 29.74 in    
Wind  
Wind Speed 12 mph (SSE)    
Max Wind Speed 25 mph    
Max Gust Speed 34 mph    
Visibility 10 miles    
Events      
Averages and records for this station are not official NWS values.
T = Trace of Precipitation, MM = Missing Value Source: NWS Daily Summary

Daily Weather History Graph

Daily Weather History Graph

Search for Another Location

Airport or City:

Trip Planner

Search our weather history database for the weather conditions in past years. The results will help you decide how hot, cold, wet, or windy it might be!

Date:

Astronomy

Sep. 10, 2012 Rise Set
Actual Time 6:54 AM CDT 7:44 PM CDT
Civil Twilight 6:23 AM CDT 8:15 PM CDT
Nautical Twilight 5:45 AM CDT 8:52 PM CDT
Astronomical Twilight 5:06 AM CDT 9:31 PM CDT
Moon 12:58 AM CDT (9/10) 4:31 PM CDT (9/10)
Length of Visible Light 13h 52m
Length of Day
12h 49m
Waning Crescent, 30% of the Moon is Illuminated
Sep 10
Waning Crescent
Sep 15
New
Sep 22
First Quarter
Sep 29
Full
Oct 8
Last Quarter

Hourly Weather History & Observations

Time (CDT) Temp. Dew Point Humidity Pressure Visibility Wind Dir Wind Speed Gust Speed Precip Events Conditions
12:16 AM 53.6 °F 42.8 °F 67% 29.96 in 10.0 mi SSE 9.2 mph - N/A   Clear
12:35 AM 53.6 °F 42.8 °F 67% 29.95 in 10.0 mi SSE 9.2 mph - N/A   Clear
12:55 AM 53.6 °F 42.8 °F 67% 29.95 in 10.0 mi SSE 9.2 mph - N/A   Clear
1:16 AM 55.4 °F 42.8 °F 63% 29.94 in 10.0 mi SSE 10.4 mph - N/A   Clear
1:35 AM 55.4 °F 42.8 °F 63% 29.94 in 10.0 mi SSE 10.4 mph - N/A   Clear
1:55 AM 55.4 °F 42.8 °F 63% 29.92 in 10.0 mi SSE 11.5 mph - N/A   Clear
2:15 AM 55.4 °F 42.8 °F 63% 29.92 in 10.0 mi SSE 11.5 mph - N/A   Clear
2:35 AM 55.4 °F 42.8 °F 63% 29.91 in 10.0 mi SSE 9.2 mph - N/A   Clear
2:55 AM 55.4 °F 42.8 °F 63% 29.91 in 10.0 mi SSE 9.2 mph - N/A   Clear
3:15 AM 53.6 °F 44.6 °F 72% 29.90 in 10.0 mi South 10.4 mph - N/A   Clear
3:35 AM 53.6 °F 44.6 °F 72% 29.89 in 10.0 mi SSE 9.2 mph - N/A   Clear
3:55 AM 53.6 °F 44.6 °F 72% 29.89 in 10.0 mi SSE 8.1 mph - N/A   Clear
4:15 AM 53.6 °F 44.6 °F 72% 29.88 in 10.0 mi SSE 10.4 mph - N/A   Clear
4:35 AM 55.4 °F 44.6 °F 67% 29.87 in 10.0 mi SSE 10.4 mph 16.1 mph N/A   Clear
4:55 AM 55.4 °F 44.6 °F 67% 29.86 in 10.0 mi SSE 9.2 mph - N/A   Clear
5:15 AM 55.4 °F 44.6 °F 67% 29.85 in 10.0 mi SSE 11.5 mph - N/A   Clear
5:35 AM 55.4 °F 44.6 °F 67% 29.84 in 10.0 mi SSE 12.7 mph - N/A   Clear
5:55 AM 55.4 °F 42.8 °F 63% 29.84 in 10.0 mi SSE 12.7 mph 16.1 mph N/A   Clear
6:15 AM 55.4 °F 42.8 °F 63% 29.83 in 10.0 mi SSE 11.5 mph 17.3 mph N/A   Clear
6:35 AM 55.4 °F 42.8 °F 63% 29.82 in 10.0 mi SSE 10.4 mph - N/A   Clear
6:55 AM 55.4 °F 42.8 °F 63% 29.82 in 10.0 mi South 11.5 mph - N/A   Clear
7:15 AM 57.2 °F 42.8 °F 59% 29.81 in 10.0 mi SSE 10.4 mph - N/A   Clear
7:35 AM 57.2 °F 42.8 °F 59% 29.80 in 10.0 mi SSE 10.4 mph 16.1 mph N/A   Clear
7:55 AM 60.8 °F 42.8 °F 52% 29.80 in 10.0 mi South 11.5 mph - N/A   Clear
8:15 AM 60.8 °F 44.6 °F 55% 29.79 in 10.0 mi SSE 10.4 mph - N/A   Clear
8:35 AM 64.4 °F 42.8 °F 45% 29.78 in 10.0 mi South 11.5 mph 17.3 mph N/A   Clear
8:55 AM 64.4 °F 42.8 °F 45% 29.78 in 10.0 mi South 15.0 mph - N/A   Clear
9:15 AM 64.4 °F 44.6 °F 49% 29.78 in 10.0 mi South 11.5 mph - N/A   Clear
9:35 AM 66.2 °F 42.8 °F 43% 29.77 in 10.0 mi South 15.0 mph 18.4 mph N/A   Clear
9:55 AM 68.0 °F 44.6 °F 43% 29.76 in 10.0 mi South 17.3 mph 25.3 mph N/A   Clear
10:15 AM 69.8 °F 44.6 °F 40% 29.76 in 10.0 mi South 18.4 mph 24.2 mph N/A   Clear
10:35 AM 71.6 °F 44.6 °F 38% 29.75 in 10.0 mi South 15.0 mph - N/A   Clear
10:55 AM 71.6 °F 44.6 °F 38% 29.74 in 10.0 mi South 18.4 mph 24.2 mph N/A   Clear
11:15 AM 73.4 °F 44.6 °F 36% 29.73 in 10.0 mi South 17.3 mph 20.7 mph N/A   Clear
11:35 AM 75.2 °F 44.6 °F 34% 29.72 in 10.0 mi South 16.1 mph 25.3 mph N/A   Clear
11:55 AM 77.0 °F 44.6 °F 32% 29.71 in 10.0 mi South 18.4 mph 25.3 mph N/A   Clear
12:15 PM 78.8 °F 44.6 °F 30% 29.70 in 10.0 mi South 17.3 mph 25.3 mph N/A   Clear
12:35 PM 78.8 °F 42.8 °F 28% 29.69 in 10.0 mi South 23.0 mph 27.6 mph N/A   Clear
12:55 PM 80.6 °F 44.6 °F 28% 29.68 in 10.0 mi South 19.6 mph 27.6 mph N/A   Clear
1:15 PM 80.6 °F 44.6 °F 28% 29.68 in 10.0 mi South 21.9 mph 29.9 mph N/A   Clear
1:35 PM 80.6 °F 44.6 °F 28% 29.67 in 10.0 mi South 25.3 mph 28.8 mph N/A   Clear
1:55 PM 80.6 °F 44.6 °F 28% 29.66 in 10.0 mi South 18.4 mph 27.6 mph N/A   Clear
2:15 PM 82.4 °F 44.6 °F 26% 29.65 in 10.0 mi South 21.9 mph 29.9 mph N/A   Clear
2:35 PM 82.4 °F 44.6 °F 26% 29.64 in 10.0 mi SSE 20.7 mph 26.5 mph N/A   Clear
2:55 PM 82.4 °F 44.6 °F 26% 29.64 in 10.0 mi South 24.2 mph 34.5 mph N/A   Clear
3:15 PM 84.2 °F 44.6 °F 25% 29.64 in 10.0 mi South 18.4 mph 26.5 mph N/A   Clear
3:35 PM 84.2 °F 44.6 °F 25% 29.64 in 10.0 mi South 23.0 mph 32.2 mph N/A   Clear
3:55 PM 84.2 °F 44.6 °F 25% 29.65 in 10.0 mi South 20.7 mph 33.4 mph N/A   Clear
4:15 PM 84.2 °F 44.6 °F 25% 29.64 in 10.0 mi South 18.4 mph 31.1 mph N/A   Clear
4:36 PM 84.2 °F 44.6 °F 25% 29.64 in 10.0 mi South 24.2 mph 29.9 mph N/A   Clear
4:55 PM 84.2 °F 44.6 °F 25% 29.63 in 10.0 mi South 20.7 mph 31.1 mph N/A   Clear
5:15 PM 84.2 °F 44.6 °F 25% 29.63 in 10.0 mi South 21.9 mph 28.8 mph N/A   Clear
5:36 PM 84.2 °F 46.4 °F 27% 29.63 in 10.0 mi South 20.7 mph 27.6 mph N/A   Clear
5:55 PM 84.2 °F 46.4 °F 27% 29.62 in 10.0 mi South 15.0 mph 23.0 mph N/A   Clear
6:15 PM 84.2 °F 46.4 °F 27% 29.62 in 10.0 mi South 17.3 mph 21.9 mph N/A   Clear
6:36 PM 80.6 °F 46.4 °F 30% 29.62 in 10.0 mi South 15.0 mph 23.0 mph N/A   Clear
6:55 PM 80.6 °F 46.4 °F 30% 29.62 in 10.0 mi South 11.5 mph - N/A   Clear
7:15 PM 80.6 °F 46.4 °F 30% 29.62 in 10.0 mi South 12.7 mph - N/A   Clear
7:36 PM 77.0 °F 46.4 °F 34% 29.62 in 10.0 mi SSE 8.1 mph - N/A   Clear
7:55 PM 73.4 °F 46.4 °F 38% 29.62 in 10.0 mi SSE 8.1 mph - N/A   Clear
8:15 PM 73.4 °F 46.4 °F 38% 29.62 in 10.0 mi SSE 10.4 mph - N/A   Clear
8:36 PM 71.6 °F 48.2 °F 43% 29.62 in 10.0 mi SSE 8.1 mph - N/A   Clear
8:55 PM 71.6 °F 48.2 °F 43% 29.63 in 10.0 mi SSE 8.1 mph - N/A   Clear
9:15 PM 69.8 °F 48.2 °F 46% 29.63 in 10.0 mi SSE 9.2 mph - N/A   Clear
9:36 PM 69.8 °F 48.2 °F 46% 29.64 in 10.0 mi SSE 10.4 mph - N/A   Clear
9:55 PM 69.8 °F 48.2 °F 46% 29.63 in 10.0 mi South 8.1 mph - N/A   Clear
10:15 PM 68.0 °F 48.2 °F 49% 29.63 in 10.0 mi South 8.1 mph - N/A   Clear
10:36 PM 66.2 °F 48.2 °F 52% 29.64 in 10.0 mi South 3.5 mph - N/A   Clear
10:55 PM 66.2 °F 48.2 °F 52% 29.65 in 10.0 mi South 6.9 mph - N/A   Clear
11:15 PM 64.4 °F 48.2 °F 56% 29.65 in 10.0 mi South 6.9 mph - N/A   Clear
11:35 PM 64.4 °F 48.2 °F 56% 29.65 in 10.0 mi Calm Calm - N/A   Clear
11:55 PM 64.4 °F 48.2 °F 56% 29.65 in 10.0 mi Calm Calm - N/A   Clear